2023/05/12 00:00:00, 0.0, 4.4
2023/05/12 00:10:00, 0.0, 4.2
2023/05/12 00:20:00, 0.0, 4.2
2023/05/12 00:30:00, 0.0, 4.1
2023/05/12 00:40:00, 0.0, 4.2
2023/05/12 00:50:00, 0.0, 4.0
2023/05/12 01:00:00, 0.0, 4.1
2023/05/12 01:10:00, 0.0, 3.9
2023/05/12 01:20:00, 0.0, 3.7
2023/05/12 01:30:00, 0.0, 3.6
2023/05/12 01:40:00, 0.0, 3.6
2023/05/12 01:50:00, 0.0, 3.4
2023/05/12 02:00:00, 0.0, 3.6
2023/05/12 02:10:00, 0.0, 3.6
2023/05/12 02:20:00, 0.0, 3.3
2023/05/12 02:30:00, 0.0, 3.4
2023/05/12 02:40:00, 0.0, 3.4
2023/05/12 02:50:00, 0.0, 3.2
2023/05/12 03:00:00, 0.0, 3.4
2023/05/12 03:10:00, 0.0, 3.2
2023/05/12 03:20:00, 0.0, 3.2
2023/05/12 03:30:00, 0.0, 3.4
2023/05/12 03:40:00, 0.0, 3.1
2023/05/12 03:50:00, 0.0, 3.2
2023/05/12 04:00:00, 0.0, 3.0
2023/05/12 04:10:00, 0.0, 2.9
2023/05/12 04:20:00, 0.0, 2.9
2023/05/12 04:30:00, 0.0, 3.1
2023/05/12 04:40:00, 0.0, 2.9
2023/05/12 04:50:00, 0.0, 3.0
2023/05/12 05:00:00, 0.0, 3.4
2023/05/12 05:10:00, 0.0, 3.0
2023/05/12 05:20:00, 0.0, 3.3
2023/05/12 05:30:00, 0.0, 3.4
2023/05/12 05:40:00, 0.0, 3.6
2023/05/12 05:50:00, 0.0, 3.8
2023/05/12 06:00:00, 0.0, 4.0
2023/05/12 06:10:00, 0.0, 4.7
2023/05/12 06:20:00, 0.1, 5.6
2023/05/12 06:30:00, 0.1, 6.6
2023/05/12 06:40:00, 0.0, 8.2
2023/05/12 06:50:00, 0.0, 9.2
2023/05/12 07:00:00, 0.0,10.2
2023/05/12 07:10:00, 0.0,11.0
2023/05/12 07:20:00, 0.0,11.9
2023/05/12 07:30:00, 0.0,13.3
2023/05/12 07:40:00, 0.0,13.8
2023/05/12 07:50:00, 0.0,14.8
2023/05/12 08:00:00, 0.0,15.9
2023/05/12 08:10:00, 0.0,17.1
2023/05/12 08:20:00, 0.0,18.0
2023/05/12 08:30:00, 0.0,19.0
2023/05/12 08:40:00, 0.0,19.2
2023/05/12 08:50:00, 0.0,19.7
2023/05/12 09:00:00, 0.0,19.7
2023/05/12 09:10:00, 0.0,19.7
2023/05/12 09:20:00, 0.0,20.1
2023/05/12 09:30:00, 0.0,20.8
2023/05/12 09:40:00, 0.0,21.3
2023/05/12 09:50:00, 0.0,21.8
2023/05/12 10:00:00, 0.0,21.5
2023/05/12 10:10:00, 0.0,21.6
2023/05/12 10:20:00, 0.0,22.5
2023/05/12 10:30:00, 0.0,21.2
2023/05/12 10:40:00, 0.0,21.4
2023/05/12 10:50:00, 0.0,21.4
2023/05/12 11:00:00, 0.0,21.8
2023/05/12 11:10:00, 0.0,21.9
2023/05/12 11:20:00, 0.0,22.7
2023/05/12 11:30:00, 0.0,23.2
2023/05/12 11:40:00, 0.0,24.2
2023/05/12 11:50:00, 0.0,23.0
2023/05/12 12:00:00, 0.0,22.7
2023/05/12 12:10:00, 0.0,23.7
2023/05/12 12:20:00, 0.0,24.7
2023/05/12 12:30:00, 0.0,24.1
2023/05/12 12:40:00, 0.0,24.7
2023/05/12 12:50:00, 0.0,25.4
2023/05/12 13:00:00, 0.0,26.1
2023/05/12 13:10:00, 0.0,27.1
2023/05/12 13:20:00, 0.0,28.2
2023/05/12 13:30:00, 0.0,28.2
2023/05/12 13:40:00, 0.0,28.6
2023/05/12 13:50:00, 0.0,29.2
2023/05/12 14:00:00, 0.0,29.0
2023/05/12 14:10:00, 0.0,28.9
2023/05/12 14:20:00, 0.0,29.3
2023/05/12 14:30:00, 0.0,29.3
2023/05/12 14:40:00, 0.0,29.1
2023/05/12 14:50:00, 0.0,27.2
2023/05/12 15:00:00, 0.0,26.9
2023/05/12 15:10:00, 0.0,28.1
2023/05/12 15:20:00, 0.0,26.9
2023/05/12 15:30:00, 0.0,25.9
2023/05/12 15:40:00, 0.0,25.1
2023/05/12 15:50:00, 0.0,24.3
2023/05/12 16:00:00, 0.0,23.1
2023/05/12 16:10:00, 0.0,25.0
2023/05/12 16:20:00, 0.0,25.6
2023/05/12 16:30:00, 0.0,25.7
2023/05/12 16:40:00, 0.0,23.9
2023/05/12 16:50:00, 0.0,23.5
2023/05/12 17:00:00, 0.0,23.2
2023/05/12 17:10:00, 0.0,22.7
2023/05/12 17:20:00, 0.0,22.3
2023/05/12 17:30:00, 0.0,21.0
2023/05/12 17:40:00, 0.0,20.5
2023/05/12 17:50:00, 0.0,19.8
2023/05/12 18:00:00, 0.0,19.3
2023/05/12 18:10:00, 0.0,18.3
2023/05/12 18:20:00, 0.0,17.7
2023/05/12 18:30:00, 0.0,16.9
2023/05/12 18:40:00, 0.0,16.1
2023/05/12 18:50:00, 0.0,15.7
2023/05/12 19:00:00, 0.0,15.1
2023/05/12 19:10:00, 0.0,15.0
2023/05/12 19:20:00, 0.0,14.3
2023/05/12 19:30:00, 0.0,13.8
2023/05/12 19:40:00, 0.0,13.8
2023/05/12 19:50:00, 0.0,13.6
2023/05/12 20:00:00, 0.0,13.2
2023/05/12 20:10:00, 0.0,13.6
2023/05/12 20:20:00, 0.0,13.1
2023/05/12 20:30:00, 0.0,12.8
2023/05/12 20:40:00, 0.0,12.6
2023/05/12 20:50:00, 0.0,12.7
2023/05/12 21:00:00, 0.0,12.3
2023/05/12 21:10:00, 0.0,12.5
2023/05/12 21:20:00, 0.0,12.2
2023/05/12 21:30:00, 0.0,12.1
2023/05/12 21:40:00, 0.0,12.2
2023/05/12 21:50:00, 0.0,11.9
2023/05/12 22:00:00, 0.0,11.9
2023/05/12 22:10:00, 0.0,11.8
2023/05/12 22:20:00, 0.0,11.8
2023/05/12 22:30:00, 0.0,11.4
2023/05/12 22:40:00, 0.0,11.6
2023/05/12 22:50:00, 0.0,11.5
2023/05/12 23:00:00, 0.0,11.4
2023/05/12 23:10:00, 0.0,11.5
2023/05/12 23:20:00, 0.0,11.3
2023/05/12 23:30:00, 0.0,11.5
2023/05/12 23:40:00, 0.0,11.4
2023/05/12 23:50:00, 0.0,11.3
